Норт-Сиракьюс

США     43°07′23″N   76°08′30″W
темп.,
°C
ветер,
м/с
пор.,
м/с
влажн.,
%
обл.,
%
осадки,
мм/ч
давл.,
гПа
погр.,
м
21 октября, чт
чт2123:00+13юз4117323 0.0 1016324
02:00+12ююз377942 0.0 1015153
05:00+12ююз358099 0.0 1014101
08:00+12ююз2877100 0.0 1014224
11:00+17ююз4863100 0.0 1012468
14:00+19ююз6116198 0.0 1009773
17:00+19ююз5116598 0.0 1007919
20:00+15юз41189100 1.8 1006725
22 октября, пт
пт2223:00+15ююз41188100 12.1 1005653
02:00+13зюз613864 12.9 1006781
05:00+11зюз61187100 0.0 1007990
08:00+10зсз61090100 0.2 1011891
11:00+9зсз4788100 0.2 1013828
14:00+9з4773100 0.4 10141210
17:00+9сз456692 0.0 1015655
20:00+5з127796 0.0 101791
23 октября, сб
сб2323:00+5ююз1275100 0.0 101758
02:00+5юз227780 0.0 101651
05:00+4ююз2277100 0.0 101651
08:00+5ююз117767 0.0 101732
11:00+8юз136396 0.0 1017552
14:00+11з355681 0.0 10151571
17:00+11з1362100 0.0 1014465
20:00+8зюз3677100 0.3 1016576
24 октября, вс
вс2423:00+7ююз388919 0.3 1016277
02:00+5юз5108817 0.3 1017381
05:00+5зюз399125 0.1 1018320
08:00+4ююз24895 0.1 1019120
11:00+10юз46663 0.0 1018780
14:00+12з3656100 0.0 10171532
17:00+9з1371100 0.1 1017255
20:00+8ссз1283100 0.4 1019121
25 октября, пн
пн2523:00+6с2590100 0.0 1020272
02:00+5ссв2591100 0.0 1021278
05:00+4св2388100 0.0 1021137
08:00+4всв2487100 0.0 1021158
11:00+8в4671100 0.0 1020737
14:00+10в5656100 0.0 10181144
17:00+8в4770100 0.6 1018677
20:00+6в41092100 4.1 1018608